EXS61M LEAL-EGKK

Flight info

Callsign EXS61M
Flight time N/A
Altitude 36000
Route MITOS N608 COMPI Y90 USKAR DCT MOPAS DCT GIROM DCT GONUP DCT MANAK DCT EPAPU UM184 EKRAS UT507 REVTU DCT ODREP UP88 VASUX
Aircraft A21N/M-SDE3FGHIRWY/LB1

Departure

Time 2026-04-28 20:07
Airport Alicante-Elche Miguel Hernández Airport (LEAL)

Arrival

Time N/A
Airport London Gatwick Airport (EGKK)
Time Latitude Longitude Altitude Speed Heading
2026-04-28 19:47 38.28548 -0.55404 152 ft 0 kts
2026-04-28 19:55 38.28546 -0.55404 152 ft 1 kts
2026-04-28 19:55 38.28532 -0.55408 152 ft 2 kts
2026-04-28 19:56 38.28520 -0.55410 152 ft 0 kts
2026-04-28 19:56 38.28507 -0.55412 152 ft 2 kts 354°
2026-04-28 19:56 38.28492 -0.55408 152 ft 2 kts 337°
2026-04-28 19:56 38.28479 -0.55398 152 ft 2 kts 319°
2026-04-28 19:57 38.28469 -0.55384 152 ft 2 kts 301°
2026-04-28 19:57 38.28463 -0.55366 152 ft 1 kts 283°
2026-04-28 19:57 38.28462 -0.55358 152 ft 1 kts 276°
2026-04-28 19:57 38.28462 -0.55355 152 ft 0 kts 278°
2026-04-28 19:59 38.28462 -0.55362 152 ft 1 kts 278°
2026-04-28 19:59 38.28464 -0.55379 152 ft 2 kts 277°
2026-04-28 19:59 38.28467 -0.55408 152 ft 4 kts 278°
2026-04-28 20:00 38.28474 -0.55456 152 ft 6 kts 281°
2026-04-28 20:00 38.28486 -0.55522 152 ft 8 kts 282°
2026-04-28 20:00 38.28464 -0.55592 152 ft 10 kts 208°
2026-04-28 20:00 38.28405 -0.55615 152 ft 7 kts 203°
2026-04-28 20:01 38.28381 -0.55670 152 ft 7 kts 264°
2026-04-28 20:01 38.28384 -0.55734 152 ft 7 kts 277°
2026-04-28 20:01 38.28397 -0.55810 152 ft 9 kts 283°
2026-04-28 20:01 38.28411 -0.55902 152 ft 11 kts 277°
2026-04-28 20:02 38.28422 -0.56009 152 ft 13 kts 279°
2026-04-28 20:02 38.28439 -0.56129 152 ft 14 kts 280°
2026-04-28 20:02 38.28458 -0.56261 152 ft 15 kts 279°
2026-04-28 20:02 38.28477 -0.56399 152 ft 16 kts 279°
2026-04-28 20:03 38.28497 -0.56548 152 ft 17 kts 280°
2026-04-28 20:03 38.28519 -0.56702 152 ft 17 kts 280°
2026-04-28 20:03 38.28541 -0.56856 152 ft 17 kts 279°
2026-04-28 20:03 38.28562 -0.57005 152 ft 17 kts 279°
2026-04-28 20:04 38.28582 -0.57152 152 ft 16 kts 279°
2026-04-28 20:04 38.28602 -0.57295 153 ft 14 kts 280°
2026-04-28 20:04 38.28604 -0.57388 153 ft 9 kts 245°
2026-04-28 20:04 38.28556 -0.57427 152 ft 7 kts 196°
2026-04-28 20:05 38.28513 -0.57441 152 ft 5 kts 189°
2026-04-28 20:05 38.28481 -0.57444 152 ft 3 kts 179°
2026-04-28 20:05 38.28458 -0.57435 152 ft 3 kts 148°
2026-04-28 20:05 38.28442 -0.57410 152 ft 3 kts 116°
2026-04-28 20:06 38.28435 -0.57377 152 ft 3 kts 102°
2026-04-28 20:06 38.28433 -0.57366 152 ft 0 kts 101°
2026-04-28 20:06 38.28426 -0.57322 152 ft 17 kts 101°
2026-04-28 20:06 38.28363 -0.56859 152 ft 89 kts 99°
2026-04-28 20:07 38.28219 -0.55805 152 ft 151 kts 100°
2026-04-28 20:07 38.28082 -0.54838 244 ft 175 kts 99°
2026-04-28 20:07 38.27791 -0.52811 1088 ft 177 kts 98°
2026-04-28 20:07 38.27535 -0.51301 1852 ft 176 kts 101°
2026-04-28 20:08 38.27503 -0.49766 2396 ft 183 kts 73°
2026-04-28 20:08 38.28183 -0.48326 2777 ft 200 kts 54°
2026-04-28 20:08 38.29040 -0.46836 3144 ft 219 kts 56°
2026-04-28 20:08 38.29961 -0.45185 3506 ft 239 kts 56°
2026-04-28 20:09 38.30951 -0.43406 3995 ft 255 kts 56°
2026-04-28 20:09 38.31965 -0.41508 4706 ft 262 kts 62°
2026-04-28 20:09 38.32709 -0.39384 5434 ft 267 kts 70°
2026-04-28 20:09 38.33341 -0.37179 6144 ft 273 kts 71°
2026-04-28 20:10 38.33997 -0.34896 6870 ft 279 kts 71°
2026-04-28 20:10 38.34690 -0.32567 7606 ft 284 kts 70°
2026-04-28 20:10 38.35406 -0.30223 8294 ft 289 kts 70°
2026-04-28 20:10 38.36143 -0.27846 9001 ft 294 kts 69°
2026-04-28 20:11 38.36940 -0.25414 9703 ft 299 kts 68°
2026-04-28 20:11 38.37755 -0.22992 10357 ft 306 kts 68°
2026-04-28 20:11 38.38617 -0.20428 10762 ft 322 kts 68°
2026-04-28 20:11 38.39514 -0.17747 11086 ft 339 kts 68°
2026-04-28 20:12 38.40457 -0.14919 11469 ft 354 kts 68°
2026-04-28 20:12 38.41432 -0.11990 12091 ft 360 kts 68°
2026-04-28 20:12 38.42403 -0.09069 12773 ft 364 kts 69°
2026-04-28 20:12 38.43063 -0.07079 13211 ft 366 kts 69°
2026-04-28 20:13 38.44890 -0.03419 13973 ft 376 kts 43°
2026-04-28 20:13 38.47084 -0.01695 14587 ft 378 kts 19°
2026-04-28 20:13 38.49653 -0.01127 15192 ft 377 kts 359°
2026-04-28 20:13 38.52297 -0.01152 15825 ft 380 kts 357°
2026-04-28 20:14 38.54943 -0.01197 16395 ft 384 kts 358°
2026-04-28 20:14 38.57633 -0.01226 17001 ft 387 kts 358°
2026-04-28 20:14 38.60332 -0.01236 17581 ft 391 kts 358°
2026-04-28 20:14 38.63065 -0.01235 18139 ft 394 kts 358°
2026-04-28 20:15 38.65805 -0.01227 18695 ft 397 kts 358°
2026-04-28 20:15 38.68582 -0.01215 19269 ft 399 kts 358°
2026-04-28 20:15 38.71357 -0.01200 19831 ft 402 kts 358°
2026-04-28 20:15 38.74158 -0.01183 20371 ft 404 kts 358°
2026-04-28 20:16 38.76999 -0.01165 20888 ft 407 kts 358°
2026-04-28 20:16 38.79805 -0.01146 21372 ft 410 kts 358°
2026-04-28 20:16 38.82673 -0.01129 21867 ft 413 kts 358°
2026-04-28 20:16 38.85537 -0.01111 22370 ft 415 kts 358°
2026-04-28 20:17 38.88440 -0.01091 22859 ft 417 kts 358°
2026-04-28 20:17 38.91351 -0.01072 23322 ft 420 kts 359°
2026-04-28 20:17 38.94247 -0.01054 23780 ft 422 kts 359°
2026-04-28 20:17 38.97223 -0.01035 24234 ft 424 kts 359°
2026-04-28 20:18 39.00158 -0.01017 24669 ft 426 kts 359°
2026-04-28 20:18 39.02126 -0.01003 24960 ft 428 kts 359°
2026-04-28 20:18 39.06140 -0.00975 25530 ft 430 kts 359°
2026-04-28 20:18 39.09103 -0.00955 25931 ft 432 kts 359°
2026-04-28 20:19 39.12162 -0.00935 26325 ft 434 kts 359°
2026-04-28 20:19 39.15187 -0.00915 26695 ft 436 kts 359°
2026-04-28 20:19 39.18212 -0.00895 27044 ft 438 kts 359°
2026-04-28 20:19 39.21267 -0.00873 27373 ft 440 kts 359°
2026-04-28 20:20 39.24348 -0.00850 27697 ft 442 kts 359°
2026-04-28 20:20 39.27442 -0.00827 28019 ft 444 kts 359°
2026-04-28 20:20 39.30498 -0.00799 28338 ft 446 kts
2026-04-28 20:20 39.33627 -0.00550 28664 ft 448 kts
2026-04-28 20:21 39.36731 0.00020 28983 ft 450 kts
2026-04-28 20:21 39.39778 0.00912 29295 ft 452 kts 14°
2026-04-28 20:21 39.42827 0.02005 29569 ft 454 kts 15°
2026-04-28 20:21 39.45855 0.03136 29818 ft 457 kts 15°
2026-04-28 20:22 39.48930 0.04290 30072 ft 458 kts 15°
2026-04-28 20:22 39.52005 0.05441 30395 ft 458 kts 15°
2026-04-28 20:22 39.55049 0.06576 30764 ft 457 kts 15°
2026-04-28 20:22 39.58077 0.07702 31122 ft 456 kts 15°
2026-04-28 20:23 39.61152 0.08843 31473 ft 455 kts 15°
2026-04-28 20:23 39.64183 0.09969 31805 ft 454 kts 15°
2026-04-28 20:23 39.67215 0.11096 32107 ft 453 kts 15°
2026-04-28 20:23 39.70219 0.12213 32399 ft 453 kts 15°
2026-04-28 20:24 39.73276 0.13351 32675 ft 453 kts 15°
2026-04-28 20:24 39.76265 0.14465 32949 ft 452 kts 15°
2026-04-28 20:24 39.79270 0.15585 33228 ft 451 kts 15°
2026-04-28 20:24 39.82298 0.16716 33507 ft 450 kts 15°
2026-04-28 20:25 39.85315 0.17843 33782 ft 449 kts 15°
2026-04-28 20:25 39.88280 0.18952 34030 ft 448 kts 15°
2026-04-28 20:25 39.91268 0.20071 34257 ft 448 kts 15°
2026-04-28 20:25 39.94295 0.21205 34445 ft 448 kts 15°
2026-04-28 20:26 39.97288 0.22327 34613 ft 449 kts 15°
2026-04-28 20:26 40.00347 0.23474 34787 ft 450 kts 15°
2026-04-28 20:26 40.03323 0.24591 34957 ft 451 kts 15°
2026-04-28 20:26 40.06390 0.25740 35117 ft 451 kts 15°
2026-04-28 20:27 40.09415 0.26875 35266 ft 452 kts 15°
2026-04-28 20:27 40.12459 0.28018 35418 ft 453 kts 15°
2026-04-28 20:27 40.15463 0.29149 35562 ft 453 kts 15°
2026-04-28 20:27 40.18533 0.30306 35682 ft 454 kts 15°
2026-04-28 20:28 40.21540 0.31440 35799 ft 455 kts 15°
2026-04-28 20:28 40.24581 0.32590 35929 ft 455 kts 15°
2026-04-28 20:28 40.27637 0.33746 35980 ft 456 kts 15°
2026-04-28 20:29 40.33739 0.36056 35986 ft 456 kts 15°
2026-04-28 20:29 40.39817 0.38363 35985 ft 456 kts 15°
2026-04-28 20:30 40.45902 0.40678 35986 ft 457 kts 15°
2026-04-28 20:30 40.52017 0.43010 35983 ft 457 kts 15°
2026-04-28 20:31 40.58116 0.45340 35985 ft 457 kts 15°
2026-04-28 20:31 40.64211 0.47673 35981 ft 457 kts 15°
2026-04-28 20:32 40.70331 0.50019 35980 ft 458 kts 15°
2026-04-28 20:32 40.76448 0.52370 35979 ft 457 kts 15°
2026-04-28 20:33 40.82506 0.54703 35982 ft 457 kts 15°
2026-04-28 20:33 40.88651 0.57073 35981 ft 457 kts 15°
2026-04-28 20:34 40.94738 0.59425 35982 ft 457 kts 15°
2026-04-28 20:34 41.00860 0.61798 35992 ft 458 kts 15°
2026-04-28 20:35 41.06946 0.64160 35996 ft 458 kts 15°
2026-04-28 20:35 41.13093 0.66549 35998 ft 458 kts 15°
2026-04-28 20:36 41.19235 0.68939 36008 ft 459 kts 15°
2026-04-28 20:36 41.25379 0.71333 36009 ft 459 kts 15°
2026-04-28 20:37 41.31494 0.73722 36012 ft 459 kts 15°
2026-04-28 20:37 41.37595 0.76109 36011 ft 459 kts 15°
2026-04-28 20:38 41.43706 0.78506 36011 ft 459 kts 15°
2026-04-28 20:38 41.49864 0.80928 36010 ft 459 kts 15°
2026-04-28 20:39 41.55959 0.83329 36003 ft 459 kts 15°
2026-04-28 20:39 41.62101 0.85753 36001 ft 460 kts 15°
2026-04-28 20:39 41.65165 0.86964 35749 ft 460 kts 15°
2026-04-28 20:40 41.68243 0.88182 35887 ft 459 kts 15°
2026-04-28 20:40 41.74355 0.90606 35974 ft 461 kts 15°
2026-04-28 20:41 41.80512 0.93049 35991 ft 461 kts 15°
2026-04-28 20:41 41.86681 0.95501 36005 ft 461 kts 15°
2026-04-28 20:42 41.92803 0.97944 36013 ft 461 kts 14°
2026-04-28 20:42 41.98971 1.00410 36021 ft 461 kts 14°
2026-04-28 20:43 42.05126 1.02875 36022 ft 461 kts 14°
2026-04-28 20:43 42.11346 1.04823 36025 ft 459 kts
2026-04-28 20:44 42.17720 1.05738 36023 ft 457 kts 360°
2026-04-28 20:44 42.24039 1.05597 36029 ft 455 kts 353°
2026-04-28 20:45 42.30383 1.04901 36042 ft 455 kts 352°
2026-04-28 20:45 42.36686 1.04187 36055 ft 455 kts 352°
2026-04-28 20:46 42.43003 1.03496 36064 ft 455 kts 352°
2026-04-28 20:46 42.49339 1.02807 36069 ft 455 kts 352°
2026-04-28 20:47 42.55627 1.02121 36062 ft 455 kts 352°
2026-04-28 20:47 42.61961 1.01427 36057 ft 456 kts 352°
2026-04-28 20:48 42.68288 1.00735 36063 ft 456 kts 352°
2026-04-28 20:48 42.74604 1.00007 36060 ft 456 kts 350°
2026-04-28 20:49 42.80827 0.98584 36056 ft 453 kts 343°
2026-04-28 20:49 42.86964 0.96508 36046 ft 452 kts 342°
2026-04-28 20:50 42.93018 0.94396 36043 ft 453 kts 342°
2026-04-28 20:50 42.99127 0.92275 36028 ft 453 kts 342°
2026-04-28 20:51 43.05236 0.90158 36015 ft 453 kts 342°
2026-04-28 20:51 43.11368 0.88029 36003 ft 453 kts 342°
2026-04-28 20:52 43.17489 0.85899 35999 ft 453 kts 342°
2026-04-28 20:52 43.23608 0.83766 35993 ft 453 kts 342°
2026-04-28 20:53 43.32758 0.80568 35987 ft 453 kts 342°
2026-04-28 20:53 43.38885 0.78421 35987 ft 453 kts 342°
2026-04-28 20:54 43.44970 0.76166 35983 ft 451 kts 338°
2026-04-28 20:54 43.50831 0.73143 35981 ft 449 kts 333°
2026-04-28 20:55 43.56583 0.69757 35984 ft 449 kts 333°
2026-04-28 20:55 43.62280 0.66377 35984 ft 448 kts 333°
2026-04-28 20:56 43.67994 0.62992 35981 ft 448 kts 333°
2026-04-28 20:56 43.73737 0.59588 35980 ft 448 kts 332°
2026-04-28 20:57 43.79442 0.56204 35982 ft 449 kts 333°
2026-04-28 20:57 43.85184 0.52790 35983 ft 449 kts 332°
2026-04-28 20:58 43.90925 0.49371 35982 ft 448 kts 332°
2026-04-28 20:58 43.96644 0.45957 35980 ft 448 kts 332°
2026-04-28 20:59 44.02340 0.42551 35982 ft 448 kts 332°
2026-04-28 20:59 44.08080 0.39110 35980 ft 447 kts 332°
2026-04-28 21:00 44.13785 0.35683 35984 ft 447 kts 332°
2026-04-28 21:00 44.19527 0.32225 35978 ft 446 kts 331°
2026-04-28 21:01 44.25212 0.28795 35977 ft 447 kts 331°
2026-04-28 21:01 44.30905 0.25353 35974 ft 447 kts 331°
2026-04-28 21:02 44.36621 0.21890 35968 ft 447 kts 331°
2026-04-28 21:02 44.42283 0.18452 35971 ft 447 kts 331°
2026-04-28 21:03 44.47980 0.14986 35965 ft 447 kts 331°
2026-04-28 21:03 44.53665 0.11522 35965 ft 446 kts 331°
2026-04-28 21:04 44.59364 0.08042 35967 ft 446 kts 331°
2026-04-28 21:04 44.65019 0.04577 35964 ft 445 kts 331°
2026-04-28 21:05 44.70702 0.01090 35956 ft 445 kts 331°
2026-04-28 21:05 44.76379 -0.02402 35953 ft 445 kts 331°
2026-04-28 21:06 44.82054 -0.05899 35957 ft 444 kts 331°
2026-04-28 21:06 44.87720 -0.09399 35960 ft 445 kts 331°
2026-04-28 21:07 44.93377 -0.12899 35952 ft 445 kts 330°
2026-04-28 21:07 44.99030 -0.16407 35951 ft 445 kts 330°
2026-04-28 21:08 45.04696 -0.19928 35952 ft 444 kts 330°
2026-04-28 21:08 45.10345 -0.23448 35952 ft 444 kts 330°
2026-04-28 21:09 45.16004 -0.26982 35964 ft 443 kts 330°
2026-04-28 21:09 45.21638 -0.30507 35957 ft 443 kts 330°
2026-04-28 21:10 45.27300 -0.34057 35958 ft 443 kts 330°
2026-04-28 21:10 45.32943 -0.37604 35964 ft 444 kts 330°
2026-04-28 21:11 45.38592 -0.41160 35954 ft 444 kts 330°
2026-04-28 21:11 45.44198 -0.44701 35967 ft 443 kts 330°
2026-04-28 21:12 45.49863 -0.48284 35968 ft 443 kts 330°
2026-04-28 21:12 45.55474 -0.51841 35973 ft 443 kts 330°
2026-04-28 21:13 45.61127 -0.55434 35969 ft 443 kts 330°
2026-04-28 21:13 45.66731 -0.59001 35968 ft 443 kts 330°
2026-04-28 21:14 45.72397 -0.62617 35968 ft 443 kts 330°
2026-04-28 21:14 45.78014 -0.66211 35974 ft 443 kts 330°
2026-04-28 21:15 45.83609 -0.69796 35973 ft 443 kts 329°
2026-04-28 21:15 45.89227 -0.73407 35978 ft 441 kts 330°
2026-04-28 21:16 45.94819 -0.77005 35978 ft 440 kts 329°
2026-04-28 21:16 46.00416 -0.80619 35990 ft 441 kts 329°
2026-04-28 21:17 46.06009 -0.84236 35969 ft 441 kts 330°
2026-04-28 21:17 46.11624 -0.87878 35982 ft 441 kts 330°
2026-04-28 21:18 46.17253 -0.91502 35997 ft 443 kts 331°
2026-04-28 21:18 46.23050 -0.94493 35965 ft 447 kts 338°
2026-04-28 21:19 46.29155 -0.96639 35986 ft 450 kts 342°
2026-04-28 21:19 46.35251 -0.98490 35979 ft 450 kts 342°
2026-04-28 21:20 46.41398 -1.00362 35996 ft 450 kts 343°
2026-04-28 21:20 46.47506 -1.02234 35994 ft 449 kts 343°
2026-04-28 21:21 46.53624 -1.04121 35995 ft 450 kts 343°
2026-04-28 21:21 46.59750 -1.06016 36009 ft 449 kts 343°
2026-04-28 21:22 46.65828 -1.07900 36012 ft 450 kts 343°
2026-04-28 21:22 46.70958 -1.09494 36003 ft 450 kts 343°
2026-04-28 21:23 46.78086 -1.11714 36020 ft 450 kts 343°
2026-04-28 21:23 46.84255 -1.13641 36007 ft 450 kts 343°
2026-04-28 21:24 46.90345 -1.15545 36022 ft 450 kts 343°
2026-04-28 21:24 46.96490 -1.17473 36009 ft 450 kts 343°
2026-04-28 21:25 47.02578 -1.19387 36024 ft 450 kts 343°
2026-04-28 21:25 47.05638 -1.20349 36214 ft 449 kts 343°
2026-04-28 21:25 47.08699 -1.21314 36116 ft 447 kts 343°
2026-04-28 21:26 47.14778 -1.23234 36063 ft 447 kts 343°
2026-04-28 21:26 47.20869 -1.25162 36026 ft 447 kts 344°
2026-04-28 21:27 47.26941 -1.27087 36046 ft 447 kts 344°
2026-04-28 21:27 47.33003 -1.29013 36033 ft 447 kts 344°
2026-04-28 21:28 47.39098 -1.30956 36030 ft 447 kts 345°
2026-04-28 21:28 47.45169 -1.32894 36046 ft 446 kts 345°
2026-04-28 21:29 47.51249 -1.34841 36053 ft 446 kts 345°
2026-04-28 21:29 47.57288 -1.36779 36035 ft 446 kts 345°
2026-04-28 21:30 47.63351 -1.38732 36064 ft 446 kts 345°
2026-04-28 21:30 47.69423 -1.40571 36047 ft 447 kts 348°
2026-04-28 21:31 47.75619 -1.41574 36051 ft 449 kts 354°
2026-04-28 21:31 47.81854 -1.42050 36068 ft 449 kts 355°
2026-04-28 21:32 47.88108 -1.42495 36056 ft 448 kts 355°
2026-04-28 21:32 47.94322 -1.42957 36052 ft 448 kts 355°
2026-04-28 21:33 48.00554 -1.43419 36077 ft 448 kts 355°
2026-04-28 21:33 48.06797 -1.43881 36077 ft 448 kts 355°
2026-04-28 21:34 48.13025 -1.44325 36091 ft 448 kts 355°
2026-04-28 21:34 48.19252 -1.44772 36085 ft 447 kts 355°
2026-04-28 21:35 48.25463 -1.45217 36089 ft 446 kts 355°
2026-04-28 21:35 48.31628 -1.45665 36086 ft 446 kts 356°
2026-04-28 21:36 48.37825 -1.46113 36101 ft 445 kts 356°
2026-04-28 21:36 48.44026 -1.46559 36091 ft 446 kts 356°
2026-04-28 21:37 48.50200 -1.47010 36105 ft 445 kts 356°
2026-04-28 21:37 48.56370 -1.47457 36104 ft 445 kts 356°
2026-04-28 21:38 48.62556 -1.47910 36114 ft 444 kts 356°
2026-04-28 21:38 48.65633 -1.48134 35930 ft 444 kts 356°
2026-04-28 21:38 48.68692 -1.48357 36262 ft 445 kts 357°
2026-04-28 21:39 48.71775 -1.48582 36039 ft 444 kts 357°
2026-04-28 21:39 48.74886 -1.48809 36090 ft 445 kts 357°
2026-04-28 21:39 48.81039 -1.49261 36126 ft 445 kts 357°
2026-04-28 21:40 48.87211 -1.49758 36141 ft 445 kts 355°
2026-04-28 21:40 48.93366 -1.51018 36139 ft 446 kts 349°
2026-04-28 21:41 48.99399 -1.52913 36142 ft 446 kts 348°
2026-04-28 21:41 49.05477 -1.54886 36152 ft 446 kts 349°
2026-04-28 21:42 49.11541 -1.56847 36166 ft 445 kts 348°
2026-04-28 21:42 49.17592 -1.58803 36175 ft 444 kts 349°
2026-04-28 21:43 49.23612 -1.60753 36180 ft 444 kts 349°
2026-04-28 21:43 49.29615 -1.62703 36179 ft 444 kts 349°
2026-04-28 21:44 49.35666 -1.64674 36186 ft 443 kts 349°
2026-04-28 21:44 49.41677 -1.66634 36191 ft 443 kts 348°
2026-04-28 21:45 49.47712 -1.68608 36189 ft 443 kts 348°
2026-04-28 21:45 49.53710 -1.70309 36189 ft 442 kts 354°
2026-04-28 21:46 49.59866 -1.70497 36173 ft 441 kts